User: anonymous   Login
Location: Unspecified
(0.0000°N, 0.0000°E)
Time: 19:29:18
(UTC+00:00)
Language:

CHUBUSAT 3 - Orbit

View from above orbital plane
View from above orbital plane
View from above satellite
View from above satellite

Ground track
Ground track

The orbit data is extracted from the following two-line orbital elements,

1 41339U 16012C   19341.50534235  .00000246  00000-0  12329-4 0  9998
2 41339  31.0104 130.6977 0013769  11.4281 348.6672 15.00387599208730
Epoch (UTC): 07 December 2019 12:07:41
Eccentricity: 0.0013769
inclination: 31.0104°
perigee height: 556 km
apogee height: 575 km
right ascension of ascending node: 130.6977°
argument of perigee: 11.4281°
revolutions per day: 15.00387599
mean anomaly at epoch: 348.6672°
orbit number at epoch: 20873

The dashed part of the orbit path shows where the satellite is in the earth's shadow,  

DLR